Home   Weather   Dundalk   Past weeks

Flag for Ireland Past Weather in Dundalk, Ireland — Yesterday and Last 2 Weeks

Now
48 °F

Fog.


Feels Like: 42 °F
Forecast: 45 / 54 °F
Wind: 13 mph from Southwest

Location: Glenanne

Current Time: Dec 6, 2016 at 8:19:10 am

Latest Report: Dec 6, 2016 at 7:00 am


Visibility: 2 mi

Pressure: 30.11 "Hg

Humidity: 99%

Dew Point: 47 °F

Location of DundalkLocation

Past Weather in Dundalk — Graph

°F

Dundalk Temperature Yesterday

Maximum temperature yesterday: 44 °F (at 11:00 pm)
Minimum temperature yesterday: 36 °F (at 9:00 am)
Average temperature yesterday: 40 °F

High & Low Weather Summary for the Past Weeks

 TemperatureHumidityPressure
High50 °F (Dec 1, 2:00 pm)100% (Nov 21, 7:00 am)30.56 "Hg (Nov 21, 7:00 am)
Low29 °F (Nov 25, 6:00 am)66% (Nov 22, 3:00 pm)29.44 "Hg (Nov 21, 4:00 pm)
Average40 °F90%30.25 "Hg
* Reported Nov 21 7:00 am — Dec 6 7:00 am, Dundalk, Weather by CustomWeather, © 2016

Note: Actual official high and low records may vary slightly from our data, if they occured in-between our weather recording intervals... More about our weather records

Advertising

Dundalk Weather History for the Previous 24 Hours

Scroll right to see more
 ConditionsComfort  
Time TempWeatherWind HumidityBarometerVisibility
7:00 am
Tue, Dec 6
48 °FFog.13 mph99%30.11 "Hg2 mi
6:00 am48 °FFog.10 mph99%30.12 "Hg3 mi
5:00 am47 °FFog.10 mph100%30.13 "Hg1 mi
4:00 am46 °FFog.13 mph99%30.14 "Hg1 mi
3:00 am46 °FFog.13 mph97%30.14 "Hg3 mi
2:00 am45 °FFog.8 mph98%30.15 "Hg2 mi
1:00 am45 °FFog.7 mph99%30.15 "Hg1 mi
12:00 am44 °FFog.9 mph99%30.17 "Hg2 mi
11:00 pm
Mon, Dec 5
44 °FFog.7 mph96%30.17 "Hg2 mi
10:00 pm43 °FFog.7 mph96%30.16 "Hg4 mi
9:00 pm41 °FSmoke.2 mph93%30.17 "Hg4 mi
8:00 pm41 °FSmoke.3 mph94%30.18 "Hg4 mi
7:00 pm40 °FSmoke.3 mph93%30.16 "Hg4 mi
6:00 pm41 °FSmoke.5 mph93%30.16 "Hg4 mi
5:00 pm41 °FSmoke.5 mph89%30.17 "Hg5 mi
4:00 pm42 °FSmoke.8 mph93%30.17 "Hg4 mi
3:00 pm42 °FSmoke.5 mph90%30.16 "Hg6 mi
2:00 pm42 °FSmoke.2 mph91%30.16 "Hg6 mi
1:00 pm42 °FQuite cool.2 mph93%30.16 "Hg7 mi
12:00 pm41 °FQuite cool.2 mph91%30.17 "Hg6 mi
11:00 am40 °FQuite cool.No wind93%30.18 "Hg7 mi
10:00 am38 °FFog.2 mph97%30.17 "Hg6 mi
9:00 am36 °FChilly.No wind97%30.16 "Hg7 mi
8:00 am38 °FChilly.3 mph93%30.16 "Hg7 mi
Weather by CustomWeather, © 2016

See weather overviewHow to use our weather pages